Location: Moscow
(55.7500°N, 37.5830°E)
Time: 19:41:14
(UTC+03:00)

Vanguard 2 Rocket - Pass Details

Date: 05 December 2021
Orbit: 554 x 3325 km, 32.9° (Epoch: 20 January)

Event Time Altitude Azimuth Distance (km) Brightness Sun altitude
Rises 19:48:26 0° 224° (SW) 3,685 10.5 -30.7°
Reaches altitude 10° 19:52:02 10° 201° (SSW) 3,139 9.8 -31.2°
Enters shadow 19:56:11 15° 169° (S) 3,207 9.5 -31.8°
